Location: Unspecified
(57.6483°N, 3.3184°W)
Time: 10:51:33
(UTC+00:00)

BlueWalker 3 - Pass Details

Date: 31 January 2026
Orbit: 450 x 461 km, 53.2° (Epoch: 11 February)

Event Time Altitude Azimuth Distance (km) Brightness Sun altitude
Rises 19:29:41 0° 269° (W) 2,461 6.9 -22.9°
Reaches altitude 10° 19:31:56 10° 260° (W) 1,586 5.5 -23.2°
Enters shadow 19:34:42 32° 212° (SSW) 805 3.1 -23.5°
